Regional Weather Roundup
Issued by NWS

Home | Current Version | Previous Version | Graphics & Text | Print | Product List | Glossary On
Versions: 1 2 3 4 5 6 7 8 9 10 11 12 13 14 15 16 17 18 19 20 21 22 23 24 25 26 27 28 29 30 31 32 33 34 35 36 37 38 39 40 41 42 43 44 45 46 47 48 49 50
000
ASUS43 KMKX 280620
RWRWI

WISCONSIN REGIONAL WEATHER ROUNDUP
NATIONAL WEATHER SERVICE MILWAUKEE/SULLIVAN WI
100 AM CDT THU MAY 28 2015

NOTE: "FAIR" INDICATES FEW OR NO CLOUDS BELOW 12,000 FEET WITH NO
SIGNIFICANT WEATHER AND/OR OBSTRUCTIONS TO VISIBILITY.

WIZ001-002-006>008-014>016-023>028-280700-
NORTHWEST WISCONSIN

CITY           SKY/WX    TMP DP  RH WIND       PRES   REMARKS
SUPERIOR ARPT  CLEAR     51  45  79 E13       30.07R
ASHLAND        CLEAR     51  49  92 N8        30.07R
6HR MIN TEMP:  51; 6HR MAX TEMP:  72;

HAYWARD        MOCLDY    52  50  93 CALM      30.05S FOG
6HR MIN TEMP:  52; 6HR MAX TEMP:  68;

SIREN          CLEAR     55  53  94 CALM      30.04S
CUMBERLAND     CLEAR     57  55  94 CALM      30.06S
RICE LAKE      CLEAR     58  54  84 CALM      30.07S
CHETEK         CLEAR     56  56  97 CALM      30.06S
LADYSMITH      CLEAR     56  55  97 E3        30.08S
EAU CLAIRE     NOT AVBL
MENOMONIE      CLEAR     63  59  87 SE5       30.05S
NEW RICHMOND   CLEAR     61  58  91 S3        30.05R
OSCEOLA        CLEAR     58  58 100 CALM      30.06S
$$

WIZ003>005-009-010-017-018-280700-
NORTH CENTRAL WISCONSIN

CITY           SKY/WX    TMP DP  RH WIND       PRES   REMARKS
MANITOWISH WTR FOG       50  50 100 CALM      30.08R VSB 1/2
ARBOR VITAE    CLEAR     57  55  95 CALM      30.08R
WOODRUFF       CLEAR     57  55  95 CALM      30.08R
RHINELANDER    CLEAR     52  51  97 CALM      30.09R FOG
6HR MIN TEMP:  52; 6HR MAX TEMP:  62; 6HR PCP:  0.02;

EAGLE RIVER    FOG       51  51 100 CALM      30.08R VSB 3/4
LAND O LAKES   CLEAR     49  48  99 CALM      30.10R FOG
PHILLIPS       CLEAR     54  54 100 CALM      30.06S FOG
TOMAHAWK       PTCLDY    53  52  95 CALM      30.08S
MEDFORD        PTCLDY    56  54  91 S5        30.08S
MERRILL        PTCLDY   N/A N/A N/A E3        30.09S FOG
$$

WIZ029-030-035-036-043>047-280700-
CENTRAL WISCONSIN

CITY           SKY/WX    TMP DP  RH WIND       PRES   REMARKS
WAUSAU         LGT RAIN  58  57  97 CALM      30.07R
6HR MIN TEMP:  57; 6HR MAX TEMP:  73; 6HR PCP:  0.07;

MOSINEE        CLOUDY    55  55 100 S3        30.10S
MARSHFIELD     CLEAR     57  53  86 S5        30.09R
6HR MIN TEMP:  56; 6HR MAX TEMP:  72; 6HR PCP:  0.40;

STEVENS POINT  PTCLDY    53  53  99 CALM      30.10R FOG
WAUPACA        FOG       59  58  97 CALM      30.09R VSB 1
WAUTOMA        NOT AVBL
WISC RAPIDS    CLEAR     58  55  90 CALM      30.10R
6HR MIN TEMP:  57; 6HR MAX TEMP:  71; 6HR PCP:  0.06;

CAMP DOUGLAS   NOT AVBL
$$

WIZ011>013-019>022-031-037>040-048>050-280700-
NORTHEAST WISCONSIN

CITY           SKY/WX    TMP DP  RH WIND       PRES   REMARKS
ANTIGO         MOCLDY    52  52 100 CALM      30.10R FOG
SHAWANO        CLEAR     58  56  94 SW3       30.08R
OCONTO           N/A     54  54 100 CALM      30.06R VSB 3/4
STURGEON BAY   CLEAR     55  52  88 SW6       30.09R
6HR MIN TEMP:  55; 6HR MAX TEMP:  61;

GREEN BAY      PTCLDY    59  55  87 S3        30.08R
6HR MIN TEMP:  57; 6HR MAX TEMP:  76; 6HR PCP: TRACE;

MANITOWOC      NOT AVBL
APPLETON       PTCLDY    57  55  94 SW3       30.09R
CLINTONVILLE   CLEAR     57  55  94 CALM      30.08R
OSHKOSH        MOCLDY    61  56  83 SW5       30.09R
6HR MIN TEMP:  59; 6HR MAX TEMP:  75; 6HR PCP:  0.03;

$$

WIZ032>034-041-042-053>061-280700-
SOUTHWEST WISCONSIN

CITY           SKY/WX    TMP DP  RH WIND       PRES   REMARKS
LA CROSSE      CLEAR     65  60  84 SE6       30.07S
6HR MIN TEMP:  65; 6HR MAX TEMP:  80;

SPARTA         CLEAR     56  55  97 CALM      30.10R
VIROQUA        CLEAR     66  58  76 S6        30.10S
BOSCOBEL       CLEAR     58  56  93 CALM      30.11R FOG
6HR MIN TEMP:  58; 6HR MAX TEMP:  78;

PRAIRIE DU CHI CLEAR     60  57  91 CALM      30.11R
PLATTEVILLE    CLEAR     64  59  86 S6        30.13R
$$

WIZ056-057-062-063-064-067-068-280700-
SOUTH CENTRAL WISCONSIN

CITY           SKY/WX    TMP DP  RH WIND       PRES   REMARKS
REEDSBURG      CLEAR     62  58  88 CALM      30.10R
BARABOO/DELLS  CLEAR     61  56  83 E3        30.11R
LONE ROCK      NOT AVBL
MINERAL POINT  CLEAR     64  59  82 S6        30.13R
MADISON        CLEAR     66  58  75 S3        30.11S
6HR MIN TEMP:  63; 6HR MAX TEMP:  76;

MIDDLETON      CLEAR     67  58  72 SW8       30.12R
WATERTOWN      CLEAR    N/A N/A N/A CALM      30.11S
MONROE         CLEAR     63  59  88 S8        30.13S
JANESVILLE     CLEAR     63  59  88 CALM      30.13R
$$

WIZ051-052-058>065-066-070>072-280700-
SOUTHEAST WISCONSIN

CITY           SKY/WX    TMP DP  RH WIND       PRES   REMARKS
MILWAUKEE      CLEAR     60  54  80 CALM      30.12R
6HR MIN TEMP:  58; 6HR MAX TEMP:  67;

WAUKESHA       CLEAR     61  54  77 SW6       30.13S
MILWAUKEE/TIMM PTCLDY    61  52  72 SW3       30.12R
RACINE         CLEAR     57  53  86 S3        30.15R
6HR MIN TEMP:  57; 6HR MAX TEMP:  67;

BURLINGTON     CLEAR     56  55  97 SW5       30.13S
KENOSHA        CLEAR     59  56  89 S6        30.13R
6HR MIN TEMP:  58; 6HR MAX TEMP:  69;

FOND DU LAC    MOCLDY    63  58  83 S3        30.10S
6HR MIN TEMP:  63; 6HR MAX TEMP:  74; 6HR PCP: TRACE;

SHEBOYGAN      MOCLDY    63  58  83 W3        30.10R
6HR MIN TEMP:  59; 6HR MAX TEMP:  72;

WEST BEND      MOCLDY    63  54  72 SW3       30.10S
JUNEAU         PTCLDY    61  57  86 W9        30.13R
$$

LSZ147-162-280700-
LAKE SUPERIOR

STATION/POSITION TIME  TEMP    WIND        PRES    WAVE
                       AIR SEA DIR/SP/G            HT/PER
                 (UTC) (F)     (DEG/KT/KT) (MB)    (FT/S)
W MID LAKE BUOY  0450   43 37   60/ 10/ 14   N/A     1
DEVILS ISLAND    0500   52      90/ 15/ 16   N/A
PORT WING        0540   46      CALM  /  4   N/A
SAXON HARBOR     0540   53      CALM  /  4   N/A
$$

LMZ867-665-643>646-280700-
LAKE MICHIGAN

STATION/POSITION TIME  TEMP    WIND        PRES    WAVE
                       AIR SEA DIR/SP/G            HT/PER
                 (UTC) (F)     (DEG/KT/KT) (MB)    (FT/S)
CHAMBERS ISLAND  0400   59     190/  4/  8   N/A
N MID LAKE BUOY  0450   43 36  180/ 12/ 14   N/A     1/ 4
NORTHPORT PIER   0500   53     140/  5/  6   N/A
SISTER BAY       0518   61        CALM       N/A
ALGOMA LAKESHORE 0538          230/ 12/ 13   N/A
KEWAUNEE LAKESHO 0500   56     180/  3/  5   N/A
SHEBOYGAN LAKESH 0500   59     210/  7/  8   N/A
PORT WASHINGTON  0540   52     190/  7/  9   N/A
ATWATER BUOY     0500   54 49  180/  8/ 10   N/A
MILWAUKEE LAKESH 0500   55     140/  2/  4   N/A
S MID LAKE BUOY  0450   42 38  180/  8/  8   N/A     0
KENOSHA   LAKESH 0500   62     200/  7/  8   N/A
$$

TC  - TEMPERATURE IN CELSIUS
VSB - VISIBILITY IN STATUTE MILES
WCI - WIND CHILL INDEX
HX  - HEAT INDEX




USA.gov is the U.S. government's official web portal to all federal, state and local government web resources and services.